Big Rapids, MI

11:20 AM EDT on October 19, 2019 (GMT -0400)
Roben-Hood

Weather History for KRQB - August, 2019

Change the Weather History Date:

Monday, August 26, 2019

  Actual Average Record
Temperature  
Mean Temperature 65 °F -  
Max Temperature 74 °F 78 °F 91 °F (1970)
Min Temperature 56 °F 55 °F 41 °F (2008)
Growing Degree Days 15 (Base 50)    
Moisture  
Dew Point 58 °F    
Average Humidity 79    
Maximum Humidity 96    
Minimum Humidity 53    
Precipitation  
Precipitation 0.07 in - - ()
Sea Level Pressure  
Sea Level Pressure 29.91 in    
Wind  
Wind Speed 7 mph (SE)    
Max Wind Speed 20 mph    
Max Gust Speed 34 mph    
Visibility 9 miles    
Events Rain    
Averages and records for this station are not official NWS values.
T = Trace of Precipitation, MM = Missing Value Source: NWS Daily Summary

Daily Weather History Graph

Daily Weather History Graph

Search for Another Location

Airport or City:

Astronomy

Aug. 26, 2019 Rise Set
Actual Time 6:58 AM EDT 8:28 PM EDT
Civil Twilight 6:28 AM EDT 8:58 PM EDT
Nautical Twilight 5:52 AM EDT 9:34 PM EDT
Astronomical Twilight 5:13 AM EDT 10:13 PM EDT
Moon 2:16 AM EDT (8/26) 5:58 PM EDT (8/26)
Length of Visible Light 14h 29m
Length of Day
13h 29m
Waning Crescent, 19% of the Moon is Illuminated
Aug 26
Waning Crescent
Aug 30
New
Sep 5
First Quarter
Sep 14
Full
Sep 21
Last Quarter

Hourly Weather History & Observations

Time (EDT) Temp. Dew Point Humidity Pressure Visibility Wind Dir Wind Speed Gust Speed Precip Events Conditions
12:17 AM 62.6 °F 52.7 °F 70% 30.09 in 10.0 mi South 6.9 mph - N/A   Clear
12:35 AM 61.7 °F 52.7 °F 72% 30.08 in 10.0 mi South 6.9 mph - N/A   Clear
12:55 AM 61.2 °F 52.7 °F 74% 30.08 in 10.0 mi SSE 6.9 mph - N/A   Scattered Clouds
12:56 AM 61.0 °F 52.7 °F 74% 30.08 in 10.0 mi South 6.9 mph - N/A   Scattered Clouds
1:19 AM 60.8 °F 52.7 °F 75% 30.08 in 10.0 mi SE 3.5 mph - N/A   Mostly Cloudy
1:37 AM 60.4 °F 52.3 °F 75% 30.08 in 10.0 mi Calm Calm - N/A   Scattered Clouds
1:55 AM 59.7 °F 52.5 °F 77% 30.07 in 10.0 mi Calm Calm - N/A   Clear
2:15 AM 59.4 °F 52.3 °F 78% 30.07 in 10.0 mi Calm Calm - N/A   Clear
2:16 AM 59.4 °F 52.2 °F 77% 30.07 in 10.0 mi Calm Calm - N/A   Clear
2:35 AM 59.0 °F 52.3 °F 79% 30.06 in 10.0 mi Calm Calm - N/A   Clear
2:58 AM 59.0 °F 52.7 °F 80% 30.06 in 10.0 mi Calm Calm - N/A   Scattered Clouds
3:16 AM 59.0 °F 52.5 °F 79% 30.06 in 10.0 mi Calm Calm - N/A   Scattered Clouds
3:35 AM 59.4 °F 53.2 °F 80% 30.06 in 10.0 mi Calm Calm - N/A   Mostly Cloudy
3:36 AM 59.5 °F 53.2 °F 80% 30.06 in 10.0 mi Calm Calm - N/A   Mostly Cloudy
3:55 AM 59.2 °F 53.6 °F 82% 30.05 in 10.0 mi Calm Calm - N/A   Overcast
3:56 AM 59.4 °F 53.8 °F 82% 30.05 in 10.0 mi Calm Calm - N/A   Overcast
4:18 AM 59.0 °F 53.8 °F 83% 30.05 in 10.0 mi Calm Calm - N/A   Mostly Cloudy
4:35 AM 59.4 °F 54.3 °F 83% 30.04 in 10.0 mi Calm Calm - N/A   Overcast
4:36 AM 59.4 °F 54.5 °F 84% 30.04 in 10.0 mi Calm Calm - N/A   Overcast
4:55 AM 59.0 °F 54.1 °F 84% 30.04 in 10.0 mi Calm Calm - N/A   Mostly Cloudy
4:56 AM 59.0 °F 54.1 °F 84% 30.04 in 10.0 mi Calm Calm - N/A   Mostly Cloudy
5:19 AM 58.3 °F 54.1 °F 86% 30.04 in 10.0 mi Calm Calm - N/A   Clear
5:36 AM 57.9 °F 54.0 °F 87% 30.03 in 10.0 mi Calm Calm - N/A   Clear
5:55 AM 57.9 °F 54.1 °F 87% 30.03 in 10.0 mi Calm Calm - N/A   Clear
5:56 AM 57.7 °F 54.0 °F 87% 30.03 in 10.0 mi Calm Calm - N/A   Clear
6:15 AM 57.6 °F 54.5 °F 90% 30.02 in 10.0 mi Calm Calm - N/A   Clear
6:57 AM 57.6 °F 54.5 °F 90% 30.03 in 10.0 mi Calm Calm - N/A   Clear
7:15 AM 57.2 °F 54.1 °F 89% 30.03 in 10.0 mi Calm Calm - N/A   Clear
7:16 AM 57.2 °F 54.1 °F 89% 30.03 in 10.0 mi East 3.5 mph - N/A   Clear
7:35 AM 56.7 °F 54.1 °F 91% 30.02 in 10.0 mi East 3.5 mph - N/A   Clear
7:55 AM 57.2 °F 54.5 °F 91% 30.02 in 10.0 mi Calm Calm - N/A   Clear
8:00 AM 57.2 °F 54.5 °F 91% 30.02 in 10.0 mi Calm Calm - N/A   Clear
8:18 AM 57.4 °F 54.9 °F 91% 30.01 in 10.0 mi Calm Calm - N/A   Clear
8:36 AM 59.2 °F 55.9 °F 89% 30.01 in 10.0 mi ESE 5.8 mph - N/A   Clear
8:55 AM 60.1 °F 55.8 °F 86% 30.00 in 10.0 mi ESE 3.5 mph - N/A   Clear
8:56 AM 60.1 °F 55.8 °F 86% 30.00 in 10.0 mi ESE 3.5 mph - N/A   Clear
9:19 AM 62.4 °F 56.8 °F 82% 30.00 in 10.0 mi SE 4.6 mph - N/A   Clear
9:37 AM 63.0 °F 56.7 °F 80% 29.99 in 10.0 mi SE 11.5 mph 18.4 mph N/A   Clear
9:55 AM 64.8 °F 57.6 °F 77% 29.98 in 10.0 mi South 8.1 mph 17.3 mph N/A   Clear
9:56 AM 64.9 °F 57.6 °F 77% 29.98 in 10.0 mi South 8.1 mph 17.3 mph N/A   Clear
10:35 AM 68.2 °F 57.0 °F 67% 29.96 in 10.0 mi East 12.7 mph 23.0 mph N/A   Clear
10:58 AM 71.8 °F 56.7 °F 59% 29.95 in 10.0 mi ESE 15.0 mph 23.0 mph N/A   Scattered Clouds
11:16 AM 72.5 °F 56.1 °F 56% 29.94 in 10.0 mi SE 15.0 mph 25.3 mph N/A   Clear
11:35 AM 72.3 °F 55.4 °F 55% 29.94 in 10.0 mi ESE 13.8 mph 23.0 mph N/A   Scattered Clouds
11:55 AM 72.5 °F 57.0 °F 58% 29.93 in 10.0 mi SE 11.5 mph 21.9 mph N/A   Scattered Clouds
11:56 AM 72.9 °F 57.2 °F 58% 29.93 in 10.0 mi ESE 10.4 mph - N/A   Scattered Clouds
12:19 PM 73.4 °F 56.1 °F 55% 29.93 in 10.0 mi SE 17.3 mph 24.2 mph N/A   Scattered Clouds
12:36 PM 74.3 °F 56.3 °F 53% 29.92 in 10.0 mi SE 18.4 mph 26.5 mph N/A   Mostly Cloudy
12:55 PM 73.8 °F 57.2 °F 56% 29.90 in 10.0 mi ESE 12.7 mph 25.3 mph N/A   Overcast
12:56 PM 73.9 °F 57.4 °F 56% 29.90 in 10.0 mi SE 12.7 mph 25.3 mph N/A   Overcast
1:15 PM 73.4 °F 57.7 °F 58% 29.90 in 10.0 mi ESE 10.4 mph - N/A   Mostly Cloudy
1:20 PM 73.4 °F 57.9 °F 58% 29.90 in 10.0 mi SE 13.8 mph - N/A   Mostly Cloudy
1:38 PM 73.6 °F 57.9 °F 58% 29.89 in 10.0 mi SE 18.4 mph 24.2 mph N/A   Overcast
1:56 PM 73.8 °F 58.1 °F 58% 29.88 in 10.0 mi SE 13.8 mph 23.0 mph N/A   Overcast
2:15 PM 74.7 °F 58.6 °F 57% 29.88 in 10.0 mi SE 16.1 mph 28.8 mph N/A   Overcast
2:16 PM 74.7 °F 58.6 °F 57% 29.88 in 10.0 mi SE 12.7 mph 28.8 mph N/A   Overcast
2:35 PM 73.8 °F 59.0 °F 60% 29.87 in 10.0 mi SE 16.1 mph 28.8 mph N/A   Overcast
2:40 PM 73.9 °F 59.0 °F 59% 29.87 in 10.0 mi SE 15.0 mph 26.5 mph N/A   Overcast
2:57 PM 72.5 °F 60.1 °F 65% 29.86 in 10.0 mi SE 16.1 mph 23.0 mph N/A Rain Light Rain
3:15 PM 73.4 °F 60.4 °F 64% 29.85 in 10.0 mi SE 11.5 mph - N/A   Overcast
3:16 PM 73.4 °F 60.4 °F 64% 29.85 in 10.0 mi SE 16.1 mph 24.2 mph N/A   Overcast
3:35 PM 73.0 °F 60.6 °F 65% 29.84 in 10.0 mi SE 13.8 mph 32.2 mph N/A   Overcast
3:36 PM 73.0 °F 60.6 °F 65% 29.84 in 10.0 mi SE 13.8 mph 32.2 mph N/A   Overcast
3:58 PM 72.7 °F 60.4 °F 65% 29.84 in 10.0 mi SE 16.1 mph 24.2 mph N/A   Overcast
4:16 PM 72.5 °F 61.0 °F 67% 29.83 in 10.0 mi SE 13.8 mph 24.2 mph N/A   Overcast
4:35 PM 72.7 °F 61.3 °F 67% 29.81 in 10.0 mi SE 13.8 mph 28.8 mph N/A   Overcast
4:36 PM 72.7 °F 61.5 °F 68% 29.81 in 10.0 mi SE 11.5 mph 28.8 mph N/A   Overcast
4:59 PM 72.1 °F 61.2 °F 68% 29.81 in 10.0 mi SE 17.3 mph 34.5 mph N/A   Overcast
5:17 PM 71.1 °F 61.7 °F 72% 29.81 in 10.0 mi SE 19.6 mph 34.5 mph N/A   Overcast
5:35 PM 69.3 °F 61.9 °F 77% 29.81 in 10.0 mi SSE 18.4 mph 23.0 mph N/A   Overcast
5:55 PM 67.5 °F 62.6 °F 84% 29.80 in 5.0 mi SE 15.0 mph 26.5 mph N/A Rain Light Rain
5:56 PM 67.3 °F 62.6 °F 85% 29.80 in 5.0 mi SE 15.0 mph 26.5 mph N/A Rain Light Rain
6:18 PM 66.2 °F 63.7 °F 92% 29.80 in 2.5 mi SSE 13.8 mph 19.6 mph N/A Rain Light Rain
6:35 PM 66.2 °F 64.2 °F 93% 29.79 in 10.0 mi SSE 10.4 mph 19.6 mph 0.01 in Rain Light Rain
6:55 PM 65.7 °F 63.5 °F 93% 29.79 in 10.0 mi SSE 12.7 mph 23.0 mph 0.01 in Rain Light Rain
7:19 PM 65.5 °F 63.5 °F 93% 29.78 in 5.0 mi SSE 12.7 mph 20.7 mph N/A   Overcast
7:36 PM 65.3 °F 63.5 °F 94% 29.77 in 10.0 mi SSE 12.7 mph 19.6 mph N/A   Overcast
7:55 PM 65.3 °F 63.5 °F 94% 29.77 in 10.0 mi South 12.7 mph - N/A Rain Light Rain
7:56 PM 65.3 °F 63.5 °F 94% 29.77 in 10.0 mi South 11.5 mph - N/A   Overcast
8:15 PM 65.3 °F 63.5 °F 94% 29.76 in 10.0 mi SSE 11.5 mph 24.2 mph N/A   Overcast
8:20 PM 65.3 °F 63.5 °F 94% 29.76 in 10.0 mi South 12.7 mph 24.2 mph N/A   Overcast
8:37 PM 65.3 °F 63.5 °F 94% 29.76 in 7.0 mi SSE 12.7 mph 18.4 mph N/A   Overcast
8:55 PM 65.3 °F 63.7 °F 94% 29.76 in 3.0 mi SSE 12.7 mph 17.3 mph N/A   Overcast
9:15 PM 65.3 °F 63.9 °F 95% 29.75 in 3.0 mi SSE 12.7 mph 18.4 mph N/A Rain Light Rain
9:16 PM 65.3 °F 63.9 °F 95% 29.75 in 3.0 mi SSE 12.7 mph 18.4 mph N/A Rain Light Rain
9:38 PM 65.3 °F 64.2 °F 96% 29.75 in 4.0 mi SSE 11.5 mph - N/A Rain Light Rain
9:56 PM 65.7 °F 64.4 °F 96% 29.74 in 5.0 mi SSE 12.7 mph 16.1 mph 0.01 in Rain Light Rain
10:15 PM 65.7 °F 64.4 °F 96% 29.74 in 7.0 mi SSE 13.8 mph 18.4 mph N/A Rain Light Rain
10:16 PM 65.7 °F 64.4 °F 96% 29.74 in 7.0 mi SSE 15.0 mph 18.4 mph N/A Rain Light Rain
10:35 PM 65.8 °F 64.6 °F 96% 29.72 in 7.0 mi SSE 13.8 mph 19.6 mph 0.01 in Rain Light Rain
10:57 PM 66.2 °F 64.8 °F 95% 29.72 in 7.0 mi SSE 13.8 mph 17.3 mph 0.01 in Rain Light Rain
11:15 PM 66.2 °F 64.9 °F 96% 29.71 in 7.0 mi South 11.5 mph 20.7 mph N/A Rain Light Rain
11:35 PM 66.4 °F 65.3 °F 96% 29.70 in 7.0 mi SSE 12.7 mph 18.4 mph 0.02 in Rain Rain
11:39 PM 66.6 °F 65.3 °F 96% 29.69 in 7.0 mi SSE 15.0 mph 18.4 mph 0.02 in Rain Rain
11:58 PM 66.7 °F 65.5 °F 96% 29.69 in 7.0 mi SSE 10.4 mph 16.1 mph 0.04 in Rain Rain